Hourly Weather Roundup
Issued by NWS Central Illinois

Home | Current Version | Previous Version | Text Only | Print | Product List | Glossary Off
Versions: 1 2 3 4 5 6 7 8 9 10 11 12 13 14 15 16 17 18 19 20 21 22 23 24 25 26 27 28 29 30 31 32 33 34 35 36 37 38 39 40 41 42 43 44 45 46 47 48 49 50

000
NZUS43 KILX 301410
HWRILX

AREA WEATHER ROUNDUP
NATIONAL WEATHER SERVICE, LINCOLN IL
900 AM CDT SAT AUG 30 2014


CITY           SKY/WX    TMP DP  RH WIND       PRES   REMARKS
BLOOMINGTON    MOSUNNY   73  68  83 S15       29.93S
CHAMPAIGN      CLOUDY    75  70  84 S10       29.95S
DECATUR        CLOUDY    75  69  81 SW15      29.95S
FLORA          LGT RAIN  72  70  94 S13       30.00R
GALESBURG      CLOUDY    72  69  89 SW9G16    29.89S
JACKSONVILLE   SUNNY     77  71  82 SW12      29.93R
LACON          PTSUNNY   74  69  84 SW9G16    29.87S
LAWRENCEVILLE  RAIN      73  71  93 S10       30.01S FOG
LITCHFIELD     PTSUNNY   73  70  91 S14       29.96R
$$


CITY           SKY/WX    TMP DP  RH WIND       PRES   REMARKS
LINCOLN        PTSUNNY   74  70  86 S8        29.89S
MACOMB         MOSUNNY   72  69  91 SW10      29.92S
MATTOON        PTSUNNY   74  68  81 S9        29.97R
MT CARMEL AP   LGT RAIN  73  72  94 S8        30.01S
OLNEY-NOBLE AP LGT RAIN  72  70  94 S6        30.01R
PARIS          CLOUDY    74  71  88 S10       29.99R
PEORIA         PTSUNNY   74  69  85 SW10      29.89S
PONTIAC        PTSUNNY   77  73  88 SW13      29.90S
RANTOUL        PTSUNNY   76  68  74 SW12G18   29.95S
ROBINSON       LGT RAIN  74  73  93 S9        30.00F
SPRINGFIELD    MOSUNNY   76  70  82 S9G20     29.92F
TAYLORVILLE    PTSUNNY   72  70  94 S8        29.95S
$$

...REGIONAL REPORTS...


CITY           SKY/WX    TMP DP  RH WIND       PRES   REMARKS
CHICAGO O`HARE PTSUNNY   75  67  76 SW12      29.85S
KANKAKEE       PTSUNNY   74  71  88 S12       29.91S
MOLINE         CLOUDY    71  67  87 SW10      29.85R
MOUNT VERNON   CLOUDY    73  68  83 SE5       30.00F
PITTSFIELD     SUNNY     76  69  78 SW9       29.93R
QUINCY         MOSUNNY   75  70  84 SW9       29.90S
ROCKFORD       CLOUDY    71  67  87 SW8       29.84S
$$


CITY           SKY/WX    TMP DP  RH WIND       PRES   REMARKS
BURLINGTON     PTSUNNY   72  68  87 SW10      29.88S
CEDAR RAPIDS   CLOUDY    69  68  96 W13       29.84R
DES MOINES     CLOUDY    69  66  90 W8        29.88S
KIRKSVILLE     SUNNY     73  68  84 SW7       29.91S
OTTUMWA        SUNNY     70  66  87 W6        29.88R
ST LOUIS       PTSUNNY   77  69  76 SW7       29.96R
$$


CITY           SKY/WX    TMP DP  RH WIND       PRES   REMARKS
TERRE HAUTE    CLOUDY    75  69  81 S12       29.99S
EVANSVILLE     CLOUDY    75  71  87 NW6       30.03R
INDIANAPOLIS   CLOUDY    72  69  90 S12       30.00S
LAFAYETTE      LGT RAIN  73  68  84 SW5       29.96R
MADISON        CLOUDY    73  67  81 S9        29.78S
MILWAUKEE      MOSUNNY   74  66  76 SW16      29.81S
$$




USA.gov is the U.S. government's official web portal to all federal, state and local government web resources and services.